This is the latest recevied weather packets stored in our database for station/object KD8TSA. If no packets are shown the sender has not sent any weather packets the latest 10 day(s).
| Time | Temp. | Humidity | Pressure | Rain* | Wind** | Luminosity | Snow |
|---|---|---|---|---|---|---|---|
| 1777596051 | 10° C | 66% | 1014.5 hPa | 0 mm | - | 0 W/m² | - |
| 1777595751 | 10° C | 65% | 1014.6 hPa | 0 mm | - | 0 W/m² | - |
| 1777595447 | 10.56° C | 64% | 1014.5 hPa | 0 mm | - | 0 W/m² | - |
| 1777595143 | 10.56° C | 63% | 1014.3 hPa | 0 mm | - | 2 W/m² | - |
| 1777594839 | 11.11° C | 62% | 1014.1 hPa | 0 mm | - | 6 W/m² | - |
| 1777594536 | 11.11° C | 61% | 1014.1 hPa | 0 mm | - | 9 W/m² | - |
| 1777594233 | 11.67° C | 60% | 1014.3 hPa | 0 mm | - | 13 W/m² | - |
| 1777593928 | 11.67° C | 59% | 1014.1 hPa | 0 mm | - | 16 W/m² | - |
| 1777593625 | 11.67° C | 59% | 1014.3 hPa | 0 mm | - | 20 W/m² | - |
| 1777593320 | 11.67° C | 59% | 1014.3 hPa | 0 mm | - | 25 W/m² | - |
| 1777593015 | 11.67° C | 58% | 1014.3 hPa | 0 mm | - | 29 W/m² | - |
| 1777592709 | 12.22° C | 58% | 1014.1 hPa | 0 mm | - | 31 W/m² | - |
| 1777592405 | 12.22° C | 57% | 1014.1 hPa | 0 mm | - | 34 W/m² | - |
| 1777592100 | 12.22° C | 56% | 1013.9 hPa | 0 mm | - | 38 W/m² | - |
| 1777591799 | 12.78° C | 55% | 1014 hPa | 0 mm | - | 42 W/m² | - |
| 1777591494 | 12.78° C | 53% | 1014.3 hPa | 0 mm | - | 61 W/m² | - |
| 1777591191 | 12.78° C | 53% | 1014 hPa | 0 mm | - | 83 W/m² | - |
| 1777590885 | 13.33° C | 54% | 1014.1 hPa | 0 mm | - | 94 W/m² | - |
| 1777590582 | 13.33° C | 53% | 1014.1 hPa | 0 mm | - | 104 W/m² | - |
| 1777590277 | 13.33° C | 54% | 1013.9 hPa | 0 mm | - | 130 W/m² | - |
| 1777589976 | 13.33° C | 54% | 1014.3 hPa | 0 mm | - | 96 W/m² | - |
| 1777589672 | 13.89° C | 54% | 1014.1 hPa | 0 mm | - | 164 W/m² | - |
| 1777589370 | 13.89° C | 53% | 1014 hPa | 0 mm | - | 180 W/m² | - |
| 1777589066 | 13.33° C | 53% | 1014.6 hPa | 0 mm | - | 195 W/m² | - |
| 1777588762 | 12.78° C | 54% | 1014.4 hPa | 0 mm | - | 209 W/m² | - |
* Rain latest hour (hover to see other rain measurements)
** Current wind speed in m/s (hover to see current wind gust speed)